NORTHEAST SUFFOLK  -  Frost Advisory Frost Advisory        NORTHWEST SUFFOLK  -  Frost Advisory Frost Advisory        SOUTHEAST SUFFOLK  -  Frost Advisory Frost Advisory        SOUTHWEST SUFFOLK  -  Frost Advisory Frost Advisory      

Active alerts

Northwest Suffolk
  Details for Northwest Suffolk Frost Advisory
Southwest Suffolk
  Details for Southwest Suffolk Frost Advisory
Northeast Suffolk
  Details for Northeast Suffolk Frost Advisory
Southeast Suffolk
  Details for Southeast Suffolk Frost Advisory


WXM80 ListenWXM80 Stop

You find our weather info also at:

UK Metoffice

WeatherCloud

Weather Underground

Northeastern Weather Network

AWEKAS

Citizen Weather Observer Program (CWOP)

HAMweather, WeatherForYou, PWS Weather


Weather Underground History page Text

Daily Summary for April 24, 2016 Units:  English    Metric   Both
« Previous Day
Next Day »
Daily Weekly Monthly Yearly Custom
  High: Low: Average:
Temperature: 67.9 °F 46.5 °F 56 °F
Dew Point: 41.8 °F 26.0 °F 32.4 °F
Humidity: 71 % 21 % 43 %
Wind Speed: 8.7 mph 0.0 mph 2.9 mph
Wind Gust: 12.7 mph - -
Wind:- - SSE
Pressure: 30.08 in 29.94 in -
Precipitation: 0.00 in    
Historical Graphs
 
 
Tabular Data for April 24, 2016
Time Temperature Dew Point Pressure Wind Wind Speed Wind Gust Humidity Rainfall Rate (Hourly)
00:08 52.6 °F 39.1 °F 29.94 in NNE 5.1 mph 10.4 mph 60 % 0.00 in
00:13 52.6 °F 39.5 °F 29.94 in NNE 5.6 mph 11.5 mph 61 % 0.00 in
00:18 52.5 °F 39.4 °F 29.94 in NNE 4.6 mph 6.9 mph 61 % 0.00 in
00:23 52.4 °F 39.8 °F 29.94 in NNE 4.9 mph 6.0 mph 62 % 0.00 in
00:28 52.3 °F 39.2 °F 29.94 in NNE 4.9 mph 6.9 mph 61 % 0.00 in
00:33 52.2 °F 39.6 °F 29.94 in NNE 3.8 mph 6.0 mph 62 % 0.00 in
00:38 52.1 °F 39.5 °F 29.94 in NNE 5.4 mph 9.2 mph 62 % 0.00 in
00:44 52.0 °F 39.8 °F 29.94 in NNE 3.6 mph 6.9 mph 63 % 0.00 in
00:49 51.9 °F 40.1 °F 29.94 in North 3.4 mph 4.6 mph 64 % 0.00 in
00:54 51.8 °F 40.0 °F 29.94 in NE 4.2 mph 6.9 mph 64 % 0.00 in
00:59 51.6 °F 39.8 °F 29.94 in NNE 5.7 mph 8.1 mph 64 % 0.00 in
01:04 51.5 °F 40.1 °F 29.95 in NNE 4.8 mph 6.9 mph 65 % 0.00 in
01:09 51.4 °F 40.4 °F 29.95 in NNE 4.2 mph 5.8 mph 66 % 0.00 in
01:14 51.2 °F 40.2 °F 29.95 in North 5.4 mph 8.1 mph 66 % 0.00 in
01:19 51.1 °F 39.7 °F 29.95 in NNE 2.6 mph 5.8 mph 65 % 0.00 in
01:24 51.0 °F 40.4 °F 29.95 in NNE 2.1 mph 4.0 mph 67 % 0.00 in
01:29 51.0 °F 41.6 °F 29.95 in NNE 1.5 mph 2.3 mph 70 % 0.00 in
01:35 50.9 °F 41.8 °F 29.95 in NNE 2.4 mph 5.8 mph 71 % 0.00 in
01:40 50.7 °F 41.3 °F 29.95 in NNE 2.3 mph 5.0 mph 70 % 0.00 in
01:45 50.5 °F 40.3 °F 29.95 in NNE 2.3 mph 5.8 mph 68 % 0.00 in
01:50 50.3 °F 40.1 °F 29.95 in NNE 5.6 mph 9.2 mph 68 % 0.00 in
02:00 50.1 °F 38.8 °F 29.96 in NE 2.0 mph 4.6 mph 65 % 0.00 in
02:05 49.9 °F 38.2 °F 29.96 in ENE 1.5 mph 3.5 mph 64 % 0.00 in
02:10 49.9 °F 38.2 °F 29.96 in NNE 3.1 mph 3.5 mph 64 % 0.00 in
02:15 49.7 °F 38.0 °F 29.96 in NNE 3.3 mph 6.0 mph 64 % 0.00 in
02:20 49.6 °F 37.1 °F 29.96 in North 5.4 mph 11.5 mph 62 % 0.00 in
02:26 49.6 °F 36.3 °F 29.96 in ENE 7.3 mph 12.0 mph 60 % 0.00 in
02:31 49.6 °F 35.0 °F 29.96 in NNE 7.4 mph 12.7 mph 57 % 0.00 in
02:36 49.7 °F 34.2 °F 29.96 in NNE 6.6 mph 9.2 mph 55 % 0.00 in
02:41 49.7 °F 35.1 °F 29.97 in NNE 7.5 mph 11.5 mph 57 % 0.00 in
02:46 49.6 °F 35.0 °F 29.97 in North 6.6 mph 10.4 mph 57 % 0.00 in
02:51 49.6 °F 35.0 °F 29.97 in NNE 5.2 mph 12.7 mph 57 % 0.00 in
02:56 49.5 °F 35.3 °F 29.97 in NNE 4.5 mph 6.9 mph 58 % 0.00 in
03:01 49.5 °F 36.2 °F 29.96 in North 3.8 mph 6.0 mph 60 % 0.00 in
03:06 49.4 °F 36.1 °F 29.97 in North 5.4 mph 10.0 mph 60 % 0.00 in
03:11 49.3 °F 36.0 °F 29.97 in NNE 3.2 mph 7.0 mph 60 % 0.00 in
03:17 49.2 °F 35.5 °F 29.97 in NNE 4.0 mph 6.9 mph 59 % 0.00 in
03:22 49.0 °F 34.4 °F 29.98 in NE 2.8 mph 5.8 mph 57 % 0.00 in
03:27 48.8 °F 33.8 °F 29.98 in NE 3.5 mph 6.9 mph 56 % 0.00 in
03:32 48.7 °F 34.1 °F 29.98 in NNE 2.7 mph 4.6 mph 57 % 0.00 in
03:37 48.5 °F 33.5 °F 29.98 in NE 3.6 mph 6.9 mph 56 % 0.00 in
03:42 48.4 °F 33.4 °F 29.98 in NNE 1.6 mph 3.0 mph 56 % 0.00 in
03:47 48.3 °F 33.8 °F 29.98 in NNE 2.6 mph 5.8 mph 57 % 0.00 in
03:52 48.2 °F 33.2 °F 29.98 in NNE 1.7 mph 3.5 mph 56 % 0.00 in
03:57 48.0 °F 33.5 °F 29.98 in NNE 2.6 mph 3.5 mph 57 % 0.00 in
04:02 47.9 °F 33.8 °F 29.98 in NNE 4.5 mph 8.1 mph 58 % 0.00 in
04:08 47.8 °F 34.2 °F 29.98 in NE 5.3 mph 8.1 mph 59 % 0.00 in
04:13 47.8 °F 34.2 °F 29.98 in NNE 3.5 mph 6.9 mph 59 % 0.00 in
04:18 47.6 °F 32.7 °F 29.98 in North 4.9 mph 10.4 mph 56 % 0.00 in
04:23 47.6 °F 32.2 °F 29.98 in NNE 4.3 mph 6.9 mph 55 % 0.00 in
04:28 47.6 °F 32.2 °F 29.99 in North 4.5 mph 8.0 mph 55 % 0.00 in
04:33 47.6 °F 31.8 °F 29.99 in NNE 4.7 mph 9.2 mph 54 % 0.00 in
04:38 47.6 °F 31.3 °F 29.99 in NNE 4.4 mph 8.1 mph 53 % 0.00 in
04:43 47.6 °F 31.8 °F 29.99 in NE 4.8 mph 8.0 mph 54 % 0.00 in
04:48 47.5 °F 32.1 °F 29.99 in NNE 4.6 mph 6.9 mph 55 % 0.00 in
04:53 47.5 °F 32.6 °F 30.00 in North 3.0 mph 6.9 mph 56 % 0.00 in
04:59 47.4 °F 32.5 °F 30.00 in North 5.5 mph 6.9 mph 56 % 0.00 in
05:04 47.4 °F 32.5 °F 30.00 in North 4.0 mph 8.1 mph 56 % 0.00 in
05:09 47.3 °F 31.5 °F 30.00 in North 4.4 mph 10.4 mph 54 % 0.00 in
05:14 47.2 °F 30.9 °F 30.00 in North 6.0 mph 9.2 mph 53 % 0.00 in
05:19 47.2 °F 30.9 °F 30.00 in NNE 6.5 mph 9.2 mph 53 % 0.00 in
05:29 47.3 °F 31.0 °F 30.00 in NNE 5.4 mph 8.1 mph 53 % 0.00 in
05:34 47.2 °F 31.4 °F 30.01 in NNE 7.9 mph 11.0 mph 54 % 0.00 in
05:39 47.1 °F 30.8 °F 30.01 in NNW 4.0 mph 9.0 mph 53 % 0.00 in
05:45 47.0 °F 31.2 °F 30.01 in NNW 4.1 mph 8.1 mph 54 % 0.00 in
05:50 47.0 °F 30.7 °F 30.01 in NNE 4.0 mph 9.2 mph 53 % 0.00 in
05:55 46.9 °F 31.1 °F 30.02 in North 3.6 mph 8.1 mph 54 % 0.00 in
06:00 46.8 °F 31.0 °F 30.02 in North 4.7 mph 9.2 mph 54 % 0.00 in
06:05 46.7 °F 30.9 °F 30.03 in NNE 3.5 mph 6.0 mph 54 % 0.00 in
06:10 46.6 °F 30.4 °F 30.03 in North 4.7 mph 8.1 mph 53 % 0.00 in
06:15 46.5 °F 30.7 °F 30.03 in ENE 3.8 mph 7.0 mph 54 % 0.00 in
06:20 46.5 °F 30.7 °F 30.03 in NNW 4.8 mph 8.1 mph 54 % 0.00 in
06:25 46.5 °F 30.3 °F 30.04 in NNE 6.8 mph 11.5 mph 53 % 0.00 in
06:30 46.6 °F 30.4 °F 30.04 in NNE 5.8 mph 11.5 mph 53 % 0.00 in
06:36 46.7 °F 30.0 °F 30.04 in NNW 4.5 mph 10.4 mph 52 % 0.00 in
06:41 46.9 °F 31.1 °F 30.04 in NNE 4.7 mph 9.2 mph 54 % 0.00 in
06:46 47.1 °F 30.8 °F 30.05 in North 6.5 mph 10.4 mph 53 % 0.00 in
06:51 47.3 °F 30.1 °F 30.05 in North 4.6 mph 8.0 mph 51 % 0.00 in
06:56 47.5 °F 30.3 °F 30.06 in NNE 8.7 mph 11.5 mph 51 % 0.00 in
07:01 47.7 °F 30.9 °F 30.06 in NNE 2.7 mph 6.9 mph 52 % 0.00 in
07:06 47.9 °F 30.1 °F 30.06 in North 6.8 mph 10.0 mph 50 % 0.00 in
07:11 48.2 °F 31.4 °F 30.06 in NNW 4.3 mph 10.4 mph 52 % 0.00 in
07:16 48.4 °F 31.6 °F 30.07 in NW 4.4 mph 8.1 mph 52 % 0.00 in
07:21 48.6 °F 30.8 °F 30.07 in North 6.1 mph 9.2 mph 50 % 0.00 in
07:27 48.7 °F 31.4 °F 30.07 in NNE 4.8 mph 5.8 mph 51 % 0.00 in
07:32 48.9 °F 32.0 °F 30.07 in NNE 5.0 mph 11.5 mph 52 % 0.00 in
07:37 49.0 °F 31.2 °F 30.08 in NNE 5.5 mph 8.1 mph 50 % 0.00 in
07:42 49.3 °F 32.4 °F 30.07 in NNE 4.7 mph 6.9 mph 52 % 0.00 in
07:47 49.5 °F 31.6 °F 30.07 in NNE 4.0 mph 5.8 mph 50 % 0.00 in
07:52 49.5 °F 30.1 °F 30.07 in North 5.5 mph 9.2 mph 47 % 0.00 in
07:57 49.6 °F 31.2 °F 30.07 in NW 7.5 mph 11.5 mph 49 % 0.00 in
08:02 49.7 °F 31.8 °F 30.07 in NNW 4.8 mph 8.1 mph 50 % 0.00 in
08:07 49.8 °F 31.4 °F 30.07 in NE 6.1 mph 8.1 mph 49 % 0.00 in
08:12 49.9 °F 31.5 °F 30.07 in NNE 4.8 mph 6.0 mph 49 % 0.00 in
08:18 49.9 °F 30.5 °F 30.07 in North 5.6 mph 8.1 mph 47 % 0.00 in
08:23 50.0 °F 31.6 °F 30.07 in NNE 6.3 mph 9.2 mph 49 % 0.00 in
08:28 50.3 °F 31.3 °F 30.07 in North 5.0 mph 8.1 mph 48 % 0.00 in
08:33 50.5 °F 31.5 °F 30.07 in NNE 3.0 mph 6.9 mph 48 % 0.00 in
08:38 50.9 °F 30.3 °F 30.07 in NNE 7.0 mph 9.2 mph 45 % 0.00 in
08:43 51.3 °F 30.7 °F 30.07 in North 4.5 mph 5.8 mph 45 % 0.00 in
08:48 51.7 °F 29.9 °F 30.07 in NNE 6.0 mph 8.1 mph 43 % 0.00 in
08:53 52.0 °F 31.3 °F 30.07 in NNW 2.0 mph 5.8 mph 45 % 0.00 in
08:58 52.5 °F 31.2 °F 30.07 in NNE 5.3 mph 6.9 mph 44 % 0.00 in
09:03 52.9 °F 31.6 °F 30.07 in NNE 3.3 mph 7.0 mph 44 % 0.00 in
09:14 53.6 °F 31.6 °F 30.08 in NE 3.8 mph 5.8 mph 43 % 0.00 in
09:19 54.1 °F 32.1 °F 30.07 in North 1.4 mph 3.5 mph 43 % 0.00 in
09:24 54.6 °F 31.3 °F 30.08 in NNE 4.0 mph 5.8 mph 41 % 0.00 in
09:29 54.9 °F 30.4 °F 30.08 in NNW 3.2 mph 5.8 mph 39 % 0.00 in
09:34 55.3 °F 30.1 °F 30.08 in NNE 1.9 mph 3.5 mph 38 % 0.00 in
09:39 55.8 °F 30.5 °F 30.08 in WNW 2.7 mph 4.6 mph 38 % 0.00 in
09:44 56.2 °F 31.5 °F 30.08 in NNE 3.3 mph 4.6 mph 39 % 0.00 in
09:49 56.4 °F 29.7 °F 30.08 in North 2.2 mph 4.6 mph 36 % 0.00 in
09:54 56.8 °F 33.3 °F 30.08 in NNE 2.0 mph 6.0 mph 41 % 0.00 in
10:00 57.3 °F 33.2 °F 30.07 in North 5.1 mph 7.0 mph 40 % 0.00 in
10:05 57.2 °F 31.1 °F 30.07 in North 2.7 mph 4.6 mph 37 % 0.00 in
10:10 57.5 °F 34.6 °F 30.08 in NNE 3.1 mph 6.0 mph 42 % 0.00 in
10:15 57.8 °F 33.0 °F 30.08 in NNE 1.6 mph 4.6 mph 39 % 0.00 in
10:20 58.0 °F 29.0 °F 30.07 in NNW 1.1 mph 3.5 mph 33 % 0.00 in
10:25 58.1 °F 32.6 °F 30.07 in NNE 1.8 mph 3.5 mph 38 % 0.00 in
10:30 58.2 °F 32.7 °F 30.07 in West 3.2 mph 6.0 mph 38 % 0.00 in
10:35 58.2 °F 29.2 °F 30.07 in North 3.6 mph 5.0 mph 33 % 0.00 in
10:40 58.4 °F 30.1 °F 30.07 in WNW 2.2 mph 6.0 mph 34 % 0.00 in
10:51 58.4 °F 28.6 °F 30.07 in WNW 3.5 mph 6.0 mph 32 % 0.00 in
10:56 58.2 °F 28.5 °F 30.06 in WNW 3.6 mph 8.1 mph 32 % 0.00 in
11:01 58.4 °F 30.8 °F 30.06 in WNW 3.8 mph 7.0 mph 35 % 0.00 in
11:06 58.8 °F 31.2 °F 30.06 in NW 3.8 mph 6.9 mph 35 % 0.00 in
11:11 59.3 °F 33.0 °F 30.06 in North 2.0 mph 3.5 mph 37 % 0.00 in
11:16 59.5 °F 29.6 °F 30.06 in WNW 6.1 mph 9.2 mph 32 % 0.00 in
11:21 59.6 °F 28.9 °F 30.06 in West 3.8 mph 6.9 mph 31 % 0.00 in
11:26 60.0 °F 30.0 °F 30.06 in SW 5.1 mph 6.9 mph 32 % 0.00 in
11:31 60.3 °F 28.7 °F 30.05 in WSW 0.7 mph 3.5 mph 30 % 0.00 in
11:36 60.8 °F 31.5 °F 30.05 in WNW 2.9 mph 6.9 mph 33 % 0.00 in
11:42 60.8 °F 26.6 °F 30.05 in WNW 2.9 mph 6.9 mph 27 % 0.00 in
11:47 60.7 °F 26.5 °F 30.04 in NW 3.0 mph 6.9 mph 27 % 0.00 in
11:52 60.9 °F 27.5 °F 30.04 in NNW 2.8 mph 4.0 mph 28 % 0.00 in
11:57 61.2 °F 27.8 °F 30.04 in SW 5.9 mph 9.2 mph 28 % 0.00 in
12:02 61.1 °F 31.0 °F 30.04 in NNW 1.4 mph 4.6 mph 32 % 0.00 in
12:07 61.6 °F 29.0 °F 30.04 in NNW 2.2 mph 3.5 mph 29 % 0.00 in
12:12 62.3 °F 32.0 °F 30.04 in North 2.1 mph 3.5 mph 32 % 0.00 in
12:17 62.5 °F 28.0 °F 30.04 in West 2.5 mph 3.5 mph 27 % 0.00 in
12:22 62.6 °F 29.9 °F 30.03 in NNE 4.2 mph 5.8 mph 29 % 0.00 in
12:27 62.6 °F 26.2 °F 30.03 in NNW 3.2 mph 6.9 mph 25 % 0.00 in
12:33 62.4 °F 27.9 °F 30.03 in WNW 1.1 mph 3.5 mph 27 % 0.00 in
12:43 63.5 °F 31.5 °F 30.03 in SSW 1.4 mph 3.5 mph 30 % 0.00 in
12:48 63.7 °F 26.2 °F 30.03 in WNW 4.6 mph 6.9 mph 24 % 0.00 in
12:53 63.5 °F 26.0 °F 30.03 in WSW 4.3 mph 6.9 mph 24 % 0.00 in
12:58 63.4 °F 26.9 °F 30.03 in WNW 2.7 mph 5.8 mph 25 % 0.00 in
13:03 63.5 °F 26.0 °F 30.03 in NNE 3.0 mph 7.0 mph 24 % 0.00 in
13:08 64.2 °F 30.4 °F 30.02 in NNE 4.6 mph 4.6 mph 28 % 0.00 in
13:13 64.2 °F 27.6 °F 30.02 in NW 2.4 mph 4.0 mph 25 % 0.00 in
13:18 64.3 °F 30.5 °F 30.02 in NW 1.9 mph 3.0 mph 28 % 0.00 in
13:24 64.7 °F 29.9 °F 30.02 in NNE 2.9 mph 3.5 mph 27 % 0.00 in
13:29 64.8 °F 31.8 °F 30.02 in WNW 0.8 mph 4.6 mph 29 % 0.00 in
13:34 64.9 °F 27.2 °F 30.02 in WNW 4.2 mph 6.9 mph 24 % 0.00 in
13:39 65.2 °F 29.4 °F 30.01 in North 3.1 mph 4.6 mph 26 % 0.00 in
13:44 64.9 °F 29.2 °F 30.01 in West 3.2 mph 5.8 mph 26 % 0.00 in
13:49 65.2 °F 33.0 °F 30.01 in NW 1.7 mph 4.0 mph 30 % 0.00 in
13:54 65.1 °F 27.4 °F 30.01 in NW 3.6 mph 6.9 mph 24 % 0.00 in
13:59 65.0 °F 30.2 °F 30.01 in NNW 2.0 mph 4.6 mph 27 % 0.00 in
14:04 65.1 °F 30.3 °F 30.01 in NNE 3.2 mph 5.8 mph 27 % 0.00 in
14:09 65.5 °F 29.7 °F 30.00 in North 3.0 mph 5.0 mph 26 % 0.00 in
14:15 65.8 °F 29.0 °F 30.00 in North 2.9 mph 5.8 mph 25 % 0.00 in
14:20 65.8 °F 31.8 °F 30.00 in North 2.0 mph 5.8 mph 28 % 0.00 in
14:25 65.9 °F 27.0 °F 30.00 in WNW 3.0 mph 4.6 mph 23 % 0.00 in
14:30 65.9 °F 30.0 °F 30.00 in NNW 3.2 mph 4.6 mph 26 % 0.00 in
14:35 66.1 °F 32.9 °F 30.00 in North 4.2 mph 6.9 mph 29 % 0.00 in
14:40 66.3 °F 29.4 °F 30.00 in WNW 2.8 mph 4.6 mph 25 % 0.00 in
14:45 66.4 °F 28.5 °F 30.00 in NW 1.2 mph 4.6 mph 24 % 0.00 in
14:50 66.3 °F 30.4 °F 29.99 in NW 1.9 mph 3.5 mph 26 % 0.00 in
14:55 66.4 °F 30.4 °F 29.98 in WNW 0.9 mph 3.5 mph 26 % 0.00 in
15:00 66.8 °F 27.8 °F 29.98 in NNW 0.5 mph 1.2 mph 23 % 0.00 in
15:06 67.0 °F 27.9 °F 29.98 in SSW 3.3 mph 6.9 mph 23 % 0.00 in
15:11 67.1 °F 28.0 °F 29.98 in West 2.5 mph 6.9 mph 23 % 0.00 in
15:16 67.0 °F 29.0 °F 29.99 in West 0.9 mph 5.0 mph 24 % 0.00 in
15:21 67.0 °F 27.9 °F 29.99 in West 5.2 mph 6.9 mph 23 % 0.00 in
15:26 67.2 °F 30.2 °F 29.98 in West 0.5 mph 1.2 mph 25 % 0.00 in
15:32 67.4 °F 27.2 °F 29.98 in SW 4.1 mph 8.0 mph 22 % 0.00 in
15:37 67.4 °F 28.3 °F 29.98 in NNW 2.6 mph 5.8 mph 23 % 0.00 in
15:42 67.3 °F 26.0 °F 29.97 in NW 3.2 mph 5.8 mph 21 % 0.00 in
15:47 67.1 °F 26.9 °F 29.97 in SSW 1.2 mph 3.5 mph 22 % 0.00 in
15:52 67.2 °F 30.2 °F 29.97 in NW 2.6 mph 4.6 mph 25 % 0.00 in
15:57 67.4 °F 28.3 °F 29.97 in WNW 2.8 mph 3.5 mph 23 % 0.00 in
16:07 67.7 °F 29.6 °F 29.97 in WNW 0.5 mph 3.5 mph 24 % 0.00 in
16:12 67.8 °F 27.5 °F 29.97 in WSW 3.6 mph 4.6 mph 22 % 0.00 in
16:18 67.5 °F 27.3 °F 29.97 in WSW 3.0 mph 4.6 mph 22 % 0.00 in
16:23 67.5 °F 28.4 °F 29.97 in SW 4.7 mph 6.0 mph 23 % 0.00 in
16:28 67.3 °F 26.0 °F 29.96 in SW 3.4 mph 5.8 mph 21 % 0.00 in
16:33 67.3 °F 27.1 °F 29.96 in WNW 4.0 mph 6.9 mph 22 % 0.00 in
16:38 67.4 °F 28.3 °F 29.96 in WNW 1.9 mph 3.5 mph 23 % 0.00 in
16:48 67.4 °F 27.2 °F 29.96 in West 2.4 mph 4.6 mph 22 % 0.00 in
16:53 67.4 °F 29.3 °F 29.96 in WSW 1.3 mph 2.3 mph 24 % 0.00 in
16:58 67.5 °F 27.3 °F 29.96 in WSW 1.9 mph 3.5 mph 22 % 0.00 in
17:03 67.6 °F 27.4 °F 29.96 in WSW 1.0 mph 4.0 mph 22 % 0.00 in
17:09 67.8 °F 27.5 °F 29.96 in WSW 0.3 mph 2.0 mph 22 % 0.00 in
17:14 67.8 °F 27.5 °F 29.96 in WNW 2.3 mph 3.5 mph 22 % 0.00 in
17:19 67.8 °F 27.5 °F 29.95 in West 0.4 mph 3.5 mph 22 % 0.00 in
17:24 67.9 °F 28.7 °F 29.95 in WNW 1.3 mph 3.5 mph 23 % 0.00 in
17:29 67.9 °F 28.7 °F 29.95 in NW 0.2 mph 1.2 mph 23 % 0.00 in
17:34 67.8 °F 29.7 °F 29.95 in NW 2.2 mph 3.5 mph 24 % 0.00 in
17:39 67.7 °F 29.6 °F 29.95 in SW 1.0 mph 2.3 mph 24 % 0.00 in
17:44 67.5 °F 28.4 °F 29.95 in WSW 1.7 mph 3.5 mph 23 % 0.00 in
17:49 67.6 °F 28.5 °F 29.95 in SW 1.1 mph 3.5 mph 23 % 0.00 in
17:54 67.4 °F 27.2 °F 29.96 in WNW 0.4 mph 3.5 mph 22 % 0.00 in
18:00 67.2 °F 27.0 °F 29.96 in WNW 1.0 mph 4.0 mph 22 % 0.00 in
18:05 67.0 °F 26.9 °F 29.96 in WNW 0.2 mph 2.3 mph 22 % 0.00 in
18:10 66.9 °F 32.7 °F 29.96 in WNW 0.1 mph 2.3 mph 28 % 0.00 in
18:15 66.8 °F 32.6 °F 29.95 in NE 0.5 mph 3.0 mph 28 % 0.00 in
18:20 66.2 °F 30.3 °F 29.95 in ENE 1.8 mph 3.5 mph 26 % 0.00 in
18:25 65.5 °F 30.6 °F 29.95 in ENE 1.4 mph 3.5 mph 27 % 0.00 in
18:30 65.1 °F 31.2 °F 29.96 in ENE 1.1 mph 1.2 mph 28 % 0.00 in
18:36 64.8 °F 30.9 °F 29.96 in ENE 0.1 mph 1.2 mph 28 % 0.00 in
18:41 64.5 °F 30.6 °F 29.96 in Calm     28 % 0.00 in
18:46 64.4 °F 31.4 °F 29.96 in SE 1.1 mph 5.0 mph 29 % 0.00 in
18:51 63.9 °F 34.2 °F 29.96 in South 0.8 mph 3.5 mph 33 % 0.00 in
18:56 63.6 °F 34.7 °F 29.97 in SSW 2.6 mph 4.6 mph 34 % 0.00 in
19:01 63.1 °F 34.3 °F 29.97 in South 1.6 mph 3.5 mph 34 % 0.00 in
19:06 62.7 °F 33.9 °F 29.97 in South 2.0 mph 4.6 mph 34 % 0.00 in
19:11 62.3 °F 34.3 °F 29.97 in South 1.4 mph 4.6 mph 35 % 0.00 in
19:22 60.9 °F 34.4 °F 29.98 in SSW 2.3 mph 4.0 mph 37 % 0.00 in
19:27 60.0 °F 34.3 °F 29.98 in South 3.0 mph 4.0 mph 38 % 0.00 in
19:32 59.4 °F 33.8 °F 29.98 in SSW 1.2 mph 3.5 mph 38 % 0.00 in
19:37 58.8 °F 33.2 °F 29.98 in SSW 1.7 mph 3.5 mph 38 % 0.00 in
19:52 57.8 °F 34.8 °F 29.99 in Calm   1.2 mph 42 % 0.00 in
19:57 57.5 °F 35.2 °F 29.99 in Calm   2.3 mph 43 % 0.00 in
20:07 56.7 °F 35.0 °F 30.00 in WSW 1.5 mph 4.6 mph 44 % 0.00 in
20:13 56.4 °F 35.3 °F 30.00 in WSW 0.6 mph 1.2 mph 45 % 0.00 in
20:18 56.1 °F 35.6 °F 30.00 in SW 1.9 mph 3.5 mph 46 % 0.00 in
20:23 55.7 °F 35.8 °F 30.00 in Calm   1.0 mph 47 % 0.00 in
20:28 55.4 °F 35.5 °F 30.00 in SW 0.2 mph 1.2 mph 47 % 0.00 in
20:34 55.1 °F 36.3 °F 30.00 in SW 1.0 mph 3.5 mph 49 % 0.00 in
20:39 54.7 °F 35.9 °F 30.01 in SW 1.2 mph 3.5 mph 49 % 0.00 in
20:44 54.4 °F 36.1 °F 30.01 in SW 1.0 mph 3.5 mph 50 % 0.00 in
20:49 54.2 °F 36.5 °F 30.01 in Calm   1.2 mph 51 % 0.00 in
20:59 53.7 °F 36.5 °F 30.01 in SW 0.2 mph 1.2 mph 52 % 0.00 in
21:04 53.4 °F 36.7 °F 30.01 in SW 2.6 mph 3.5 mph 53 % 0.00 in
21:09 53.1 °F 36.4 °F 30.01 in SW 1.4 mph 3.5 mph 53 % 0.00 in
21:14 52.9 °F 36.2 °F 30.01 in SW 0.8 mph 4.6 mph 53 % 0.00 in
21:20 52.7 °F 36.0 °F 30.01 in SW 1.7 mph 3.0 mph 53 % 0.00 in
21:25 52.5 °F 35.4 °F 30.01 in Calm   2.3 mph 52 % 0.00 in
21:30 52.3 °F 35.2 °F 30.01 in SW 1.5 mph 3.5 mph 52 % 0.00 in
21:35 52.1 °F 35.0 °F 30.01 in SW 1.0 mph 3.5 mph 52 % 0.00 in
21:40 51.9 °F 34.8 °F 30.01 in SW 1.0 mph 1.2 mph 52 % 0.00 in
21:45 51.8 °F 35.2 °F 30.02 in Calm     53 % 0.00 in
21:50 51.6 °F 35.0 °F 30.02 in SSW 2.4 mph 4.6 mph 53 % 0.00 in
21:55 51.5 °F 34.9 °F 30.02 in Calm     53 % 0.00 in
22:00 51.4 °F 34.8 °F 30.02 in SW 0.1 mph 2.3 mph 53 % 0.00 in
22:10 51.1 °F 34.5 °F 30.02 in Calm     53 % 0.00 in
22:16 51.0 °F 34.0 °F 30.02 in SW 0.2 mph 2.3 mph 52 % 0.00 in
22:21 50.8 °F 33.8 °F 30.02 in Calm     52 % 0.00 in
22:26 50.7 °F 33.7 °F 30.02 in Calm     52 % 0.00 in
22:31 50.6 °F 34.1 °F 30.02 in South 0.6 mph 2.3 mph 53 % 0.00 in
22:36 50.5 °F 34.0 °F 30.02 in Calm     53 % 0.00 in
22:46 50.2 °F 34.6 °F 30.02 in West 0.2 mph 2.3 mph 55 % 0.00 in
22:51 50.1 °F 34.5 °F 30.02 in Calm     55 % 0.00 in
22:56 50.0 °F 34.5 °F 30.02 in West 0.1 mph 2.0 mph 55 % 0.00 in
23:01 49.8 °F 34.3 °F 30.02 in West 0.2 mph 1.2 mph 55 % 0.00 in
23:06 49.6 °F 34.5 °F 30.02 in West 0.9 mph 2.0 mph 56 % 0.00 in
23:17 49.4 °F 34.8 °F 30.02 in West 0.4 mph   57 % 0.00 in
23:22 49.3 °F 35.6 °F 30.03 in West 0.4 mph 1.2 mph 59 % 0.00 in
23:27 49.2 °F 35.9 °F 30.03 in West 0.8 mph 3.5 mph 60 % 0.00 in
23:32 49.1 °F 36.2 °F 30.03 in West 0.8 mph 2.3 mph 61 % 0.00 in
23:37 49.0 °F 36.5 °F 30.02 in Calm     62 % 0.00 in
23:42 48.8 °F 36.8 °F 30.02 in Calm     63 % 0.00 in
23:47 48.6 °F 37.0 °F 30.02 in Calm     64 % 0.00 in
23:52 48.5 °F 36.9 °F 30.02 in Calm     64 % 0.00 in
23:58 48.3 °F 37.5 °F 30.02 in Calm     66 % 0.00 in
Crab Meadow Weather
Compliments of Weather Underground - 3 mb

Script developed by  Jim McMurry - jmcmurry@mwt.net Adapted for the template by  Wim van der Kuil - Leuven-Template.eu

Weather Terms: Watch - A watch is used when the risk of a hazardous weather or hydrologic event has increased significantly, but its occurrence, location or timing is still uncertain. It is intended to provide enough lead time so those who need to set their plans in motion can do so. A watch means that hazardous weather is possible. People should have a plan of action in case a storm threatens and they should listen for later information and possible warnings especially when planning travel or outdoor activities.